Location: Unspecified
(0.0000°N, 0.0000°E)
Time: 03:21:11
(UTC+00:00)

Vanguard 2 - All Passes

Search period start: 18 December 2017 00:00
Search period end: 28 December 2017 00:00
Orbit: 553 x 2939 km, 32.9° (Epoch: 17 December)

Date Brightness Start Highest point End Pass type
(mag) Time Alt. Az. Time Alt. Az. Time Alt. Az.
18 Dec - 00:52:48 10° SW 00:57:11 17° SSW 01:02:55 10° SSE visible
18 Dec - 03:09:37 10° S 03:11:25 10° S 03:13:20 10° S visible
18 Dec - 05:19:15 10° SSW 05:28:20 17° SSE 05:38:29 10° SE visible
18 Dec - 07:28:34 10° SSW 07:44:17 39° SSE 07:59:07 10° E daylight
18 Dec - 09:39:56 10° SW 09:58:10 86° SE 10:11:41 10° NE daylight
18 Dec - 11:55:43 10° W 12:09:52 37° NW 12:19:38 10° NNE daylight
18 Dec - 20:52:53 10° NNW 20:56:22 28° NE 21:00:35 10° E night (unlit)
18 Dec - 23:00:26 10° W 23:04:49 34° SSW 23:11:18 10° SE night (unlit)
19 Dec - 01:13:30 10° SSW 01:16:19 12° SSW 01:19:33 10° S visible
19 Dec - 03:30:36 10° S 03:31:16 10° S 03:31:58 10° S visible
19 Dec - 05:37:05 10° SSW 05:47:56 21° SSE 05:59:59 10° ESE daylight
19 Dec - 07:46:25 10° SW 08:03:07 49° SSE 08:18:29 10° ENE daylight
19 Dec - 09:58:27 10° WSW 10:16:30 77° NW 10:29:47 10° NE daylight
19 Dec - 12:15:55 10° W 12:28:08 28° NW 12:36:58 10° NNE daylight
19 Dec - 21:10:26 10° NW 21:14:20 55° NE 21:19:23 10° ESE night (unlit)
19 Dec - 23:19:27 10° WSW 23:23:25 21° SSW 23:28:46 10° SSE night (unlit)
20 Dec - 03:47:57 10° S 03:51:08 11° SSE 03:54:35 10° SSE visible
20 Dec - 05:54:48 10° SSW 06:07:14 27° SSE 06:20:59 10° ESE daylight
20 Dec - 08:04:21 10° SW 08:21:46 62° SE 08:37:27 10° ENE daylight
20 Dec - 10:17:16 10° WSW 10:34:47 61° NW 10:47:42 10° NE daylight
20 Dec - 12:36:52 10° WNW 12:46:36 20° NW 12:54:04 10° N daylight
20 Dec - 21:28:24 10° WNW 21:32:24 73° SSW 21:37:41 10° SE night (unlit)
20 Dec - 23:39:17 10° SW 23:42:09 14° SSW 23:45:38 10° S visible
21 Dec - 04:05:16 10° S 04:10:53 13° SSE 04:17:15 10° SE visible
21 Dec - 06:12:28 10° SSW 06:26:16 34° SSE 06:41:23 10° E daylight
21 Dec - 08:22:26 10° SW 08:40:17 76° SE 08:56:03 10° ENE daylight
21 Dec - 10:36:29 10° WSW 10:53:04 48° NW 11:05:25 10° NNE daylight
21 Dec - 12:58:48 10° WNW 13:05:19 14° NNW 13:10:43 10° N daylight
21 Dec - 19:39:33 10° NNW 19:42:24 18° NNE 19:45:17 10° E visible
21 Dec - 21:46:48 10° W 21:50:36 37° SSW 21:55:34 10° SE night (unlit)
22 Dec - 04:22:36 10° S 04:30:24 17° SSE 04:39:34 10° ESE visible
22 Dec - 06:30:10 10° SSW 06:45:03 43° SSE 07:01:12 10° E daylight
22 Dec - 08:40:42 10° SW 08:58:42 87° NW 09:14:23 10° NE daylight
22 Dec - 10:56:12 10° W 11:11:26 37° NW 11:23:01 10° NNE daylight
22 Dec - 19:56:47 10° NNW 20:00:31 36° NE 20:04:22 10° ESE visible
22 Dec - 22:05:44 10° WSW 22:08:58 21° SSW 22:12:58 10° SSE night (unlit)
23 Dec - 04:39:58 10° SSW 04:49:39 21° SSE 05:01:18 10° ESE visible
23 Dec - 06:47:57 10° SW 07:03:39 54° SE 07:20:32 10° ENE daylight
23 Dec - 08:59:15 10° WSW 09:17:06 71° NW 09:32:29 10° NE daylight
23 Dec - 11:16:30 10° W 11:29:58 28° NW 11:40:27 10° NNE daylight
23 Dec - 20:14:35 10° NW 20:18:35 80° NE 20:22:49 10° ESE visible
23 Dec - 22:25:45 10° SW 22:27:31 12° SSW 22:29:27 10° S night (unlit)
24 Dec - 04:57:24 10° SSW 05:08:37 28° SSE 05:22:20 10° E visible
24 Dec - 07:05:52 10° SW 07:22:09 68° SE 07:39:27 10° ENE daylight
24 Dec - 09:18:07 10° WSW 09:35:29 57° NW 09:50:22 10° NE daylight
24 Dec - 11:37:31 10° WNW 11:48:44 21° NNW 11:57:45 10° NNE daylight
24 Dec - 18:25:31 10° N 18:28:15 15° NNE 18:30:41 10° ENE visible
24 Dec - 20:32:50 10° WNW 20:36:40 46° SW 20:40:48 10° SE visible
25 Dec - 03:10:31 10° S 03:13:33 11° SSE 03:16:51 10° SE visible
25 Dec - 05:14:55 10° SSW 05:27:19 36° SE 05:42:42 10° E visible
25 Dec - 07:23:56 10° SW 07:40:33 83° SE 07:58:01 10° ENE daylight
25 Dec - 09:37:23 10° WSW 09:53:58 45° NW 10:08:08 10° NNE daylight
25 Dec - 11:59:17 10° WNW 12:07:47 16° NNW 12:14:53 10° N daylight
25 Dec - 18:42:32 10° NNW 18:46:36 28° NNE 18:50:03 10° E visible
25 Dec - 20:51:38 10° W 20:54:50 23° SSW 20:58:18 10° SSE visible
26 Dec - 03:26:32 10° S 03:32:44 15° SSE 03:40:11 10° ESE visible
26 Dec - 05:32:31 10° SSW 05:45:50 46° SE 06:02:28 10° ENE visible
26 Dec - 07:42:14 10° WSW 07:58:58 81° NW 08:16:17 10° NE daylight
26 Dec - 09:57:10 10° W 10:12:35 35° NNW 10:25:47 10° NNE daylight
26 Dec - 12:21:58 10° NW 12:27:07 12° NNW 12:31:41 10° N daylight
26 Dec - 19:00:11 10° NW 19:04:48 56° NNE 19:08:40 10° ESE visible
26 Dec - 21:11:26 10° SW 21:13:07 12° SSW 21:14:53 10° S visible
27 Dec - 03:43:25 10° S 03:51:38 21° SSE 04:02:05 10° ESE visible
27 Dec - 05:50:16 10° SW 06:04:13 58° SE 06:21:44 10° ENE daylight
27 Dec - 08:00:48 10° WSW 08:17:26 66° NW 08:34:22 10° NE daylight
27 Dec - 10:17:32 10° W 10:31:26 28° NNW 10:43:21 10° NNE daylight
27 Dec - 17:10:15 10° NNW 17:13:51 16° NNE 17:16:47 10° ENE daylight
27 Dec - 19:18:17 10° WNW 19:22:53 69° SW 19:26:48 10° SE visible
